Архив погоды в Донецке за Январь, 2019 год

icon
Год:Все200220032004200520062007200820092010201120122013201420152016201720182019
Месяц:ЯнварьДекабрь
Дата Облачность Температура (д/н), °C Давление, мм Влажность, % Ветер, м/с
01.01.2019 Облачность пасмурно -5 / -5 743 93 З, 1
02.01.2019 Облачность пасмурно -2 / +0 736 99 Ю-В, 2
03.01.2019 Облачность пасмурно +0 / -1 735 100 З, 2
04.01.2019 Облачность снег -2 / -3 732 100 С-В, 4
05.01.2019 Облачность пасмурно -4 / -9 737 90 Ю-З, 3
06.01.2019 Облачность снег -4 / -5 733 93 В, 4
07.01.2019 Облачность снег -6 / -7 737 89 В, 8
08.01.2019 Облачность пасмурно -4 / -5 737 100 Ю-В, 1
09.01.2019 Облачность пасмурно -6 / -6 737 92 В, 1
10.01.2019 Облачность пасмурно -4 / -2 740 96 нет
11.01.2019 Облачность дождь +4 / +0 732 100 Ю, 5
12.01.2019 Облачность пасмурно -5 / -5 732 86 Ю-З, 6
13.01.2019 Облачность ясно -3 / -7 731 76 З, 2
14.01.2019 Облачность снег -2 / +0 726 94 Ю, 3
15.01.2019 Облачность дождь +1 / -3 727 98 Ю-З, 2
16.01.2019 Облачность ясно -4 / -7 730 82 Ю-З, 4
17.01.2019 Облачность ясно -1 / -2 739 67 Ю, 1
18.01.2019 Облачность пасмурно +0 / +2 738 100 Ю-З, 3
19.01.2019 Облачность дождь +1 / -10 742 94 С-З, 3
20.01.2019 Облачность ясно -6 / -11 749 73 Ю-В, 1
21.01.2019 Облачность снег +0 / -8 741 95 нет
22.01.2019 Облачность ясно -8 / -11 747 61 С-В, 2
23.01.2019 Облачность снег -3 / +1 740 91 Ю-В, 4
24.01.2019 Облачность дождь +3 / +1 737 86 Ю-В, 2
25.01.2019 Облачность ясно +3 / +2 737 80 Ю-В, 4
26.01.2019 Облачность ясно +5 / +2 737 79 Ю-В, 4
27.01.2019 Облачность дождь +5 / -1 736 81 Ю-В, 4
28.01.2019 Облачность пасмурно +4 / -3 740 58 Ю-З, 4
29.01.2019 Облачность дождь +3 / +4 739 79 Ю, 6
30.01.2019 Облачность дождь +5 / +2 731 94 Ю, 5
icon
Облачность:дождь дождь
Темп. днем:0..2 °C
Темп. ночью:-11..-9 °C
Давление:742 мм
Влажность:94 %
Ветер:СЗ, 3 м/с
icon
USDusd27,98(-0,05278)
RUBrub0,42(-0,00007)
EUReur31,90(-0,04336)
icon
Сб. 19 Январь 2019
icon
Логин:
Код: ---
 
Реклама
icon